This demonstration page uses our WeatherBlox Daily Observations layout. Learn more.

41.55636, -103.73856

Hourly Observations for January 29, 2019

Temp ( °F °C ) Dew Point ( °F °C ) Humidity (%) Winds ( mph kmh ) Pressure ( in mb ) Visibility ( mi km ) Precip ( " mm )
12:53 am 00:53 Clear 12 -11.1 9 -12.8 87 87 WNW 8 13 30.27 1025 10 16.09344 0 0
1:53 am 01:53 Clear 12 -11.1 9 -12.8 87 87 NW 7 11 30.24 1024 10 16.09344 0 0
2:53 am 02:53 Clear 12 -11.1 9 -12.8 87 87 NW 8 13 30.24 1024 10 16.09344 0 0
3:53 am 03:53 Clear 10 -12.2 7 -13.9 87 87 NW 8 13 30.24 1024 10 16.09344 0 0
4:53 am 04:53 Clear 10 -12.2 7 -13.9 87 87 WNW 8 13 30.24 1024 10 16.09344 0 0
5:53 am 05:53 Clear 11 -11.7 7 -13.9 84 84 NW 10 17 30.24 1024 10 16.09344 0 0
6:53 am 06:53 Clear 8 -13.3 5 -15 87 87 WNW 6 9 30.27 1025 10 16.09344 0 0
7:53 am 07:53 Sunny 11 -11.7 7 -13.9 84 84 NNW 8 13 30.27 1025 10 16.09344 0 0
8:53 am 08:53 Sunny 19 -7.2 13 -10.6 77 77 WNW 10 17 30.24 1024 10 16.09344 0 0
9:53 am 09:53 Sunny 24 -4.4 14 -10 65 65 WNW 13 20 30.24 1024 10 16.09344 0 0
10:53 am 10:53 Mostly Sunny 28 -2.2 11 -11.7 49 49 NW 29 46 30.24 1024 10 16.09344 0 0
11:53 am 11:53 Sunny 30 -1.1 11 -11.7 45 45 NW 23 37 30.18 1022 10 16.09344 0 0
12:53 pm 12:53 Sunny 31 -0.6 10 -12.2 42 42 NW 23 37 30.15 1021 10 16.09344 0 0
1:53 pm 13:53 Sunny 31 -0.6 10 -12.2 42 42 NNW 26 43 30.12 1020 10 16.09344 0 0
2:53 pm 14:53 Sunny 30 -1.1 11 -11.7 45 45 NNW 22 35 30.12 1020 10 16.09344 0 0
3:53 pm 15:53 Sunny 27 -2.8 11 -11.7 51 51 NNW 17 28 30.15 1021 10 16.09344 0 0
4:53 pm 16:53 Sunny 23 -5 11 -11.7 60 60 NNW 16 26 30.18 1022 10 16.09344 0 0
5:53 pm 17:53 Clear 19 -7.2 10 -12.2 68 68 NW 7 11 30.21 1023 10 16.09344 0 0
6:53 pm 18:53 Clear 16 -8.9 9 -12.8 74 74 WNW 7 11 30.24 1024 10 16.09344 0 0
7:53 pm 19:53 Clear 14 -10 8 -13.3 77 77 W 7 11 30.24 1024 10 16.09344 0 0
8:53 pm 20:53 Clear 14 -10 9 -12.8 80 80 NW 7 11 30.21 1023 10 16.09344 0 0
9:53 pm 21:53 Clear 9 -12.8 6 -14.4 88 88 NNE 6 9 30.21 1023 10 16.09344 0 0
10:53 pm 22:53 Clear 11 -11.7 6 -14.4 81 81 E 3 6 30.21 1023 10 16.09344 0 0
11:53 pm 23:53 Clear 7 -13.9 4 -15.6 87 87 Calm 30.21 1023 10 16.09344 0 0

Powered by AerisWeather